EW0415 Weather Reports


time (UTC)temp
C
wind
direction
speed
KPH
gust
KPH
rain 1hr
cm
rain 24hr
cm
rain mn
cm
humidity
%
barometer
mb
20260901042016 21 317 1.6 12.9 0.00 0.00 0.00 54 1016.6
20260901041536 21 314 4.8 14.5 0.00 0.00 0.00 54 1016.7
20260901041020 21 305 4.8 14.5 0.00 0.00 0.00 53 1016.6
20260901040519 21 328 4.8 12.9 0.00 0.00 0.00 53 1016.6
20260901040037 21 0 3.2 12.9 0.00 0.00 0.00 53 1016.8
20260901035519 21 321 3.2 20.9 0.00 0.00 0.00 53 1016.8
20260901035018 21 324 4.8 20.9 0.00 0.00 0.00 53 1017.0
20260901034534 21 337 4.8 20.9 0.00 0.00 0.00 52 1016.9
20260901034016 21 304 3.2 16.1 0.00 0.00 0.00 52 1016.9
20260901033518 21 336 3.2 16.1 0.00 0.00 0.00 52 1017.1
20260901033036 21 345 6.4 16.1 0.00 0.00 0.00 51 1017.1
20260901032518 21 329 3.2 17.7 0.00 0.00 0.00 52 1017.2
20260901032018 21 15 3.2 17.7 0.00 0.00 0.00 51 1017.3
20260901031535 21 63 6.4 22.5 0.00 0.00 0.00 50 1017.8
20260901031016 22 335 4.8 22.5 0.00 0.00 0.00 49 1017.6
20260901030518 22 311 3.2 16.1 0.00 0.00 0.00 49 1018.0
20260901030042 22 303 4.8 16.1 0.00 0.00 0.00 49 1018.0
20260901025518 22 10 6.4 17.7 0.00 0.00 0.00 49 1017.9
20260901025016 22 298 4.8 19.3 0.00 0.00 0.00 50 1017.9
20260901024537 22 24 6.4 19.3 0.00 0.00 0.00 49 1017.9
20260901024020 21 346 8.0 16.1 0.00 0.00 0.00 50 1017.9
20260901023518 21 15 6.4 16.1 0.00 0.00 0.00 50 1018.0
20260901023037 21 94 4.8 14.5 0.00 0.00 0.00 51 1018.0
20260901022515 20 345 4.8 14.5 0.00 0.00 0.00 53 1018.4
20260901022020 20 296 4.8 14.5 0.00 0.00 0.00 53 1018.5
20260901021531 20 332 4.8 12.9 0.00 0.00 0.00 54 1018.7
20260901021019 20 316 3.2 12.9 0.00 0.00 0.00 54 1018.7
20260901020517 19 327 3.2 12.9 0.00 0.00 0.00 54 1018.7
20260901020035 19 333 3.2 9.7 0.00 0.00 0.00 55 1018.9
20260901015518 19 306 3.2 12.9 0.00 0.00 0.00 55 1018.8
20260901015018 19 323 4.8 19.3 0.00 0.00 0.00 55 1018.9
20260901014539 19 0 3.2 19.3 0.00 0.00 0.00 55 1018.8
20260901014015 19 341 3.2 19.3 0.00 0.00 0.00 56 1018.8
20260901013515 19 334 4.8 16.1 0.00 0.00 0.00 56 1018.6
20260901013036 19 11 4.8 17.7 0.00 0.00 0.00 56 1018.6
20260901012526 19 12 6.4 17.7 0.00 0.00 0.00 56 1019.0
20260901012023 19 28 4.8 17.7 0.00 0.00 0.00 57 1019.3
20260901011534 19 338 3.2 17.7 0.00 0.00 0.00 54 1019.3
20260901011017 19 330 3.2 12.9 0.00 0.00 0.00 54 1019.3
20260901010516 19 331 4.8 17.7 0.00 0.00 0.00 53 1019.3
20260901010035 19 97 6.4 17.7 0.00 0.00 0.00 54 1019.2
20260901005520 19 319 4.8 19.3 0.00 0.00 0.00 53 1019.4
20260901005019 19 333 3.2 19.3 0.00 0.00 0.00 53 1019.4
20260901004540 19 321 3.2 19.3 0.00 0.00 0.00 53 1019.4
20260901004018 19 294 4.8 19.3 0.00 0.00 0.00 53 1019.4
20260901003516 20 324 6.4 17.7 0.00 0.00 0.00 52 1019.5
20260901003038 20 332 6.4 17.7 0.00 0.00 0.00 51 1019.4
20260901002515 20 68 4.8 14.5 0.00 0.00 0.00 52 1019.4
20260901002015 20 360 3.2 19.3 0.00 0.00 0.00 53 1019.4
20260901001533 20 323 3.2 19.3 0.00 0.00 0.00 52 1019.4
20260901001021 20 40 4.8 14.5 0.00 0.00 0.00 52 1019.5
20260901000521 20 340 4.8 14.5 0.00 0.00 0.00 52 1019.5
20260901000034 19 325 3.2 14.5 0.00 0.00 0.00 52 1019.7
20260831235516 19 28 6.4 16.1 0.00 0.00 0.00 53 1019.8
20260831235016 18 41 4.8 16.1 0.00 0.00 0.00 54 1019.9
20260831234533 18 350 4.8 16.1 0.00 0.00 0.00 54 1019.7
20260831234018 18 352 4.8 17.7 0.00 0.00 0.00 54 1019.8
20260831233515 18 259 4.8 17.7 0.00 0.00 0.00 54 1019.9
20260831233032 18 52 4.8 12.9 0.00 0.00 0.00 54 1019.9
20260831232515 18 152 4.8 12.9 0.00 0.00 0.00 53 1019.8
20260831232015 18 21 3.2 12.9 0.00 0.00 0.00 53 1019.9
20260831231534 18 9 3.2 17.7 0.00 0.00 0.00 53 1019.7
20260831231020 17 360 4.8 17.7 0.00 0.00 0.00 53 1019.9
20260831230519 17 238 6.4 17.7 0.00 0.00 0.00 53 1019.8
20260831230037 17 319 4.8 16.1 0.00 0.00 0.00 54 1019.9
20260831225521 17 65 6.4 20.9 0.00 0.00 0.00 54 1019.8
20260831225016 17 346 6.4 20.9 0.00 0.00 0.00 54 1019.8
20260831224533 17 360 8.0 17.7 0.00 0.00 0.00 54 1019.7
20260831224018 17 360 4.8 17.7 0.00 0.00 0.00 55 1019.6
20260831223519 17 28 4.8 17.7 0.00 0.00 0.00 55 1019.6
20260831223035 17 34 6.4 19.3 0.00 0.00 0.00 55 1019.8
20260831222517 17 11 8.0 22.5 0.00 0.00 0.00 55 1020.0
20260831222016 17 340 6.4 22.5 0.00 0.00 0.00 56 1020.1
20260831221536 16 11 4.8 14.5 0.00 0.00 0.00 56 1020.1
20260831221015 16 330 3.2 12.9 0.00 0.00 0.00 57 1020.1
20260831220515 16 342 4.8 14.5 0.00 0.00 0.00 58 1020.2
20260831220035 16 5 4.8 14.5 0.00 0.00 0.00 59 1020.2
20260831215516 15 346 3.2 14.5 0.00 0.00 0.00 60 1020.2
20260831215022 15 355 3.2 14.5 0.00 0.00 0.00 60 1020.1
20260831214559 15 343 3.2 12.9 0.00 0.00 0.00 60 1020.2
20260831214019 15 360 3.2 12.9 0.00 0.00 0.00 60 1020.0
20260831213520 15 355 3.2 12.9 0.00 0.00 0.00 60 1020.1
20260831213033 15 355 4.8 12.9 0.00 0.00 0.00 61 1020.0
20260831212519 15 349 3.2 12.9 0.00 0.00 0.00 61 1020.2
20260831212016 15 345 3.2 12.9 0.00 0.00 0.00 61 1020.1
20260831211534 14 347 4.8 12.9 0.00 0.00 0.00 61 1020.0
20260831211018 14 9 3.2 11.3 0.00 0.00 0.00 61 1020.0
20260831210515 14 5 3.2 11.3 0.00 0.00 0.00 61 1020.1
20260831210031 14 9 3.2 11.3 0.00 0.00 0.00 61 1020.1
20260831205515 14 360 3.2 11.3 0.00 0.00 0.00 62 1020.1
20260831205021 14 355 3.2 11.3 0.00 0.00 0.00 62 1020.1
20260831204533 14 9 1.6 8.0 0.00 0.00 0.00 62 1020.2
20260831204018 14 360 1.6 12.9 0.00 0.00 0.00 62 1020.3
20260831203519 14 0 3.2 12.9 0.00 0.00 0.00 62 1020.3
20260831203031 14 355 1.6 8.0 0.00 0.00 0.00 62 1020.3
20260831202518 14 360 3.2 8.0 0.00 0.00 0.00 61 1020.3
20260831202022 14 360 1.6 8.0 0.00 0.00 0.00 61 1020.3
20260831201537 14 360 1.6 6.4 0.00 0.00 0.00 61 1020.3
20260831201016 14 360 1.6 6.4 0.00 0.00 0.00 61 1020.4
20260831200517 14 360 1.6 8.0 0.00 0.00 0.00 61 1020.4
20260831200041 14 360 1.6 8.0 0.00 0.00 0.00 60 1020.5
20260831195519 14 355 1.6 8.0 0.00 0.00 0.00 60 1020.5
20260831195019 15 355 3.2 9.7 0.00 0.00 0.00 60 1020.5
20260831194534 15 355 4.8 12.9 0.00 0.00 0.00 60 1020.6
20260831194017 15 9 3.2 12.9 0.00 0.00 0.00 60 1020.5
20260831193518 15 9 3.2 14.5 0.00 0.00 0.00 60 1020.5
20260831193036 15 355 3.2 14.5 0.00 0.00 0.00 60 1020.6
20260831192515 14 355 3.2 12.9 0.00 0.00 0.00 60 1020.6
20260831192017 15 352 3.2 8.0 0.00 0.00 0.00 60 1020.6
20260831191535 15 348 3.2 9.7 0.00 0.00 0.00 60 1020.7
20260831191019 15 348 4.8 12.9 0.00 0.00 0.00 59 1020.6
20260831190519 15 342 3.2 12.9 0.00 0.00 0.00 59 1020.7
20260831190053 15 340 3.2 12.9 0.00 0.00 0.00 59 1020.7
20260831185516 15 334 1.6 16.1 0.00 0.00 0.00 59 1020.9
20260831185016 15 340 3.2 16.1 0.00 0.00 0.00 59 1020.9
20260831184532 15 333 4.8 16.1 0.00 0.00 0.00 58 1020.9
20260831184015 15 346 3.2 16.1 0.00 0.00 0.00 58 1020.9
20260831183515 15 15 3.2 16.1 0.00 0.00 0.00 58 1021.0
20260831183049 15 350 6.4 12.9 0.00 0.00 0.00 58 1021.2
20260831182522 15 343 3.2 12.9 0.00 0.00 0.00 58 1021.3
20260831182019 15 9 4.8 11.3 0.00 0.00 0.00 58 1021.5
20260831181535 15 9 3.2 12.9 0.00 0.00 0.00 58 1021.5
20260831181017 15 355 3.2 12.9 0.00 0.00 0.00 58 1021.6
20260831180517 15 352 4.8 12.9 0.00 0.00 0.00 57 1021.6
20260831180035 15 355 3.2 12.9 0.00 0.00 0.00 57 1021.7
20260831175517 15 13 6.4 12.9 0.00 0.00 0.00 57 1021.7
20260831175017 15 9 3.2 14.5 0.00 0.00 0.00 57 1021.6
20260831174531 15 11 4.8 14.5 0.00 0.00 0.00 57 1021.8
20260831174018 15 17 3.2 12.9 0.00 0.00 0.00 57 1021.8
20260831173515 15 9 4.8 12.9 0.00 0.00 0.00 57 1021.9
20260831173034 15 352 3.2 12.9 0.00 0.00 0.00 56 1022.0
20260831172520 15 348 4.8 11.3 0.00 0.00 0.00 56 1022.1
20260831172019 15 344 3.2 16.1 0.00 0.00 0.00 56 1022.2
20260831171537 15 23 3.2 16.1 0.00 0.00 0.00 56 1022.2
20260831171020 15 5 4.8 12.9 0.00 0.00 0.00 56 1022.3
20260831170517 15 0 3.2 12.9 0.00 0.00 0.00 56 1022.2
20260831170035 15 9 3.2 14.5 0.00 0.00 0.00 56 1022.5
20260831165515 15 11 3.2 14.5 0.00 0.00 0.00 56 1022.3
20260831165015 15 12 3.2 12.9 0.00 0.00 0.00 56 1022.3
20260831164533 15 14 4.8 12.9 0.00 0.00 0.00 56 1022.6
20260831164020 15 21 3.2 12.9 0.00 0.00 0.00 57 1022.6
20260831163521 15 24 1.6 8.0 0.00 0.00 0.00 57 1022.6
20260831163041 15 24 1.6 12.9 0.00 0.00 0.00 57 1022.5
20260831162519 15 26 3.2 12.9 0.00 0.00 0.00 58 1022.5
20260831162019 15 28 1.6 12.9 0.00 0.00 0.00 58 1022.8
20260831161535 15 36 1.6 8.0 0.00 0.00 0.00 58 1022.8
20260831161017 15 36 1.6 9.7 0.00 0.00 0.00 58 1022.9
20260831160516 15 37 3.2 9.7 0.00 0.00 0.00 58 1023.0
20260831160043 15 38 3.2 8.0 0.00 0.00 0.00 58 1023.1
20260831155519 15 0 0.0 6.4 0.00 0.00 0.00 58 1023.2
20260831155019 15 38 1.6 6.4 0.00 0.00 0.00 58 1023.2
20260831154612 15 38 1.6 6.4 0.00 0.00 0.00 58 1023.3
20260831154015 15 38 1.6 6.4 0.00 0.00 0.00 58 1023.4
20260831153516 15 38 1.6 4.8 0.00 0.00 0.00 58 1023.5
20260831153034 15 38 0.0 9.7 0.00 0.00 0.00 58 1023.6
20260831152521 15 38 1.6 9.7 0.00 0.00 0.00 58 1023.7
20260831152015 15 38 1.6 9.7 0.00 0.00 0.00 59 1023.7
20260831151537 14 44 1.6 6.4 0.00 0.00 0.00 59 1023.7
20260831151018 14 44 1.6 6.4 0.00 0.00 0.00 59 1023.6
20260831150521 14 44 1.6 6.4 0.00 0.00 0.00 60 1023.7
20260831150033 13 44 1.6 6.4 0.00 0.00 0.00 60 1023.9
20260831145520 13 0 1.6 8.0 0.00 0.00 0.00 61 1023.9
20260831145018 13 0 1.6 8.0 0.00 0.00 0.00 62 1023.9
20260831144533 13 46 1.6 6.4 0.00 0.00 0.00 63 1024.0
20260831144016 13 0 0.0 4.8 0.00 0.00 0.00 63 1024.0
20260831143516 12 46 0.0 3.2 0.00 0.00 0.00 63 1024.1
20260831143032 12 46 0.0 4.8 0.00 0.00 0.00 64 1024.3
20260831142517 12 0 0.0 4.8 0.00 0.00 0.00 64 1024.2
20260831142021 12 46 1.6 4.8 0.00 0.00 0.00 64 1024.3
20260831141535 12 46 0.0 4.8 0.00 0.00 0.00 63 1024.5
20260831141015 12 46 0.0 4.8 0.00 0.00 0.00 63 1024.4
20260831140519 12 0 0.0 3.2 0.00 0.00 0.00 62 1024.5
20260831140039 12 0 0.0 0.0 0.00 0.00 0.00 61 1024.7
20260831135516 12 0 0.0 0.0 0.00 0.00 0.00 60 1024.7
20260831135023 12 0 0.0 0.0 0.00 0.00 0.00 59 1024.8
20260831134533 13 0 0.0 0.0 0.00 0.00 0.00 59 1024.8
20260831134016 13 0 0.0 0.0 0.00 0.00 0.00 58 1025.1
20260831133518 13 0 0.0 0.0 0.00 0.00 0.00 57 1025.2
20260831133035 13 0 0.0 0.0 0.00 0.00 0.00 57 1025.3
20260831132515 14 0 0.0 0.0 0.00 0.00 0.00 56 1025.5
20260831132016 14 0 0.0 0.0 0.00 0.00 0.00 55 1025.5
20260831131541 14 0 0.0 0.0 0.00 0.00 0.00 55 1025.5
20260831131020 15 0 0.0 0.0 0.00 0.00 0.00 54 1025.6
20260831130519 15 0 0.0 3.2 0.00 0.00 0.00 55 1025.5
20260831130038 15 0 0.0 3.2 0.00 0.00 0.00 55 1025.5
20260831125520 15 46 0.0 3.2 0.00 0.00 0.00 55 1025.5
20260831125019 15 0 0.0 3.2 0.00 0.00 0.00 54 1025.4
20260831124544 15 0 0.0 4.8 0.00 0.00 0.00 54 1025.4
20260831124018 15 46 0.0 4.8 0.00 0.00 0.00 54 1025.5
20260831123518 15 46 1.6 6.4 0.00 0.00 0.00 54 1025.6
20260831123034 15 46 1.6 6.4 0.00 0.00 0.00 54 1025.7
20260831122518 15 46 3.2 6.4 0.00 0.00 0.00 54 1025.7
20260831122017 15 0 0.0 6.4 0.00 0.00 0.00 54 1025.6
20260831121535 15 46 1.6 6.4 0.00 0.00 0.00 54 1025.5
20260831121019 16 0 1.6 9.7 0.00 0.00 0.00 54 1025.4
20260831120519 16 0 1.6 9.7 0.00 0.00 0.00 54 1025.3
20260831120051 16 46 1.6 9.7 0.00 0.00 0.00 54 1025.5
20260831115524 16 49 1.6 8.0 0.00 0.00 0.00 54 1025.6
20260831115016 16 0 1.6 8.0 0.00 0.00 0.00 53 1025.6
20260831114534 16 50 3.2 9.7 0.00 0.00 0.00 53 1025.5
20260831114018 16 90 1.6 9.7 0.00 0.00 0.00 53 1025.5
20260831113516 16 88 3.2 9.7 0.00 0.00 0.00 53 1025.4
20260831113032 16 92 1.6 9.7 0.00 0.00 0.00 53 1025.3
20260831112515 16 92 1.6 11.3 0.00 0.00 0.00 53 1025.5
20260831112014 16 94 1.6 11.3 0.00 0.00 0.00 53 1025.6
20260831111535 16 92 1.6 11.3 0.00 0.00 0.00 53 1025.6
20260831111018 16 95 3.2 9.7 0.00 0.00 0.00 53 1025.6
20260831110518 16 96 1.6 9.7 0.00 0.00 0.00 53 1025.7
20260831110035 16 97 1.6 9.7 0.00 0.00 0.00 53 1025.8
20260831105518 16 96 1.6 11.3 0.00 0.00 0.00 53 1025.6
20260831105016 16 96 1.6 11.3 0.00 0.00 0.00 53 1025.9
20260831104531 16 0 1.6 9.7 0.00 0.00 0.00 53 1025.8
20260831104016 16 98 1.6 6.4 0.00 0.00 0.00 53 1025.9
20260831103517 16 97 0.0 4.8 0.00 0.00 0.00 53 1025.9
20260831103032 16 0 0.0 4.8 0.00 0.00 0.00 53 1025.9
20260831102520 16 93 0.0 6.4 0.00 0.00 0.00 53 1025.8
20260831102017 16 0 0.0 6.4 0.00 0.00 0.00 53 1026.0
20260831101533 16 95 1.6 6.4 0.00 0.00 0.00 53 1025.9
20260831101018 16 96 0.0 6.4 0.00 0.00 0.00 53 1026.1
20260831100522 17 91 3.2 6.4 0.00 0.00 0.00 53 1026.0
20260831100038 17 93 1.6 6.4 0.00 0.00 0.00 53 1026.2
20260831095516 17 94 0.0 6.4 0.00 0.00 0.00 53 1026.2
20260831095018 17 94 1.6 6.4 0.00 0.00 0.00 52 1026.4
20260831094539 17 0 0.0 3.2 0.00 0.00 0.00 52 1026.3
20260831094018 17 0 0.0 6.4 0.00 0.00 0.00 51 1026.4
20260831093518 17 96 0.0 6.4 0.00 0.00 0.00 51 1026.4
20260831093033 17 96 1.6 6.4 0.00 0.00 0.00 51 1026.2
20260831092519 17 96 1.6 4.8 0.00 0.00 0.00 50 1026.1
20260831092018 17 98 0.0 3.2 0.00 0.00 0.00 50 1026.2
20260831091543 17 0 0.0 0.0 0.00 0.00 0.00 49 1026.3
20260831091021 18 0 0.0 0.0 0.00 0.00 0.00 49 1026.1
20260831090519 18 0 0.0 0.0 0.00 0.00 0.00 48 1026.1
20260831090039 18 0 0.0 0.0 0.00 0.00 0.00 49 1026.2
20260831085521 18 0 0.0 0.0 0.00 0.00 0.00 48 1026.2
20260831085015 18 0 0.0 0.0 0.00 0.00 0.00 48 1026.3
20260831084535 19 0 0.0 0.0 0.00 0.00 0.00 48 1026.2
20260831084019 19 0 0.0 0.0 0.00 0.00 0.00 47 1026.2
20260831083520 20 0 0.0 0.0 0.00 0.00 0.00 47 1026.2
20260831083038 20 0 0.0 0.0 0.00 0.00 0.00 47 1026.3
20260831082516 20 0 0.0 3.2 0.00 0.00 0.00 46 1026.3
20260831082016 20 0 0.0 4.8 0.00 0.00 0.00 46 1026.3
20260831081534 20 0 0.0 4.8 0.00 0.00 0.00 45 1026.2
20260831081018 20 62 0.0 4.8 0.00 0.00 0.00 45 1026.3
20260831080516 21 61 0.0 8.0 0.00 0.00 0.00 44 1026.2
20260831080040 21 63 1.6 8.0 0.00 0.00 0.00 44 1026.3
20260831075520 21 75 3.2 6.4 0.00 0.00 0.00 44 1026.2
20260831075020 21 68 1.6 11.3 0.00 0.00 0.00 43 1026.1
20260831074536 21 67 3.2 11.3 0.00 0.00 0.00 43 1026.1
20260831074019 21 69 3.2 8.0 0.00 0.00 0.00 42 1026.0
20260831073517 21 70 3.2 8.0 0.00 0.00 0.00 42 1026.1
20260831073038 22 82 3.2 6.4 0.00 0.00 0.00 42 1026.2
20260831072516 22 83 1.6 12.9 0.00 0.00 0.00 42 1026.2
20260831072017 22 85 3.2 16.1 0.00 0.00 0.00 42 1026.2
20260831071542 22 44 4.8 16.1 0.00 0.00 0.00 42 1026.1
20260831071016 22 336 1.6 8.0 0.00 0.00 0.00 42 1026.2
20260831070519 22 355 1.6 8.0 0.00 0.00 0.00 42 1026.2
20260831070035 22 352 1.6 9.7 0.00 0.00 0.00 42 1026.4
20260831065520 22 355 3.2 9.7 0.00 0.00 0.00 40 1026.2
20260831065019 22 355 3.2 12.9 0.00 0.00 0.00 40 1026.5
20260831064531 22 350 3.2 12.9 0.00 0.00 0.00 42 1026.5
20260831064018 22 350 3.2 12.9 0.00 0.00 0.00 41 1026.6
20260831063518 22 350 4.8 12.9 0.00 0.00 0.00 41 1026.8
20260831063034 22 339 4.8 9.7 0.00 0.00 0.00 41 1026.8
20260831062518 22 336 4.8 9.7 0.00 0.00 0.00 41 1027.0
20260831062022 23 315 1.6 9.7 0.00 0.00 0.00 41 1027.0
20260831061535 23 346 4.8 12.9 0.00 0.00 0.00 41 1027.0
20260831061019 23 60 3.2 12.9 0.00 0.00 0.00 40 1027.2
20260831060517 23 57 4.8 16.1 0.00 0.00 0.00 37 1027.2
20260831060040 23 101 4.8 16.1 0.00 0.00 0.00 38 1027.1
20260831055521 23 53 4.8 16.1 0.00 0.00 0.00 36 1027.2
20260831055018 23 28 3.2 12.9 0.00 0.00 0.00 37 1027.2
20260831054535 23 348 4.8 12.9 0.00 0.00 0.00 37 1027.2
20260831054023 23 28 4.8 17.7 0.00 0.00 0.00 38 1027.3
20260831053516 23 351 3.2 17.7 0.00 0.00 0.00 38 1027.2
20260831053034 23 92 4.8 14.5 0.00 0.00 0.00 38 1027.3
20260831052521 23 150 4.8 14.5 0.00 0.00 0.00 37 1027.3
20260831052018 23 33 4.8 14.5 0.00 0.00 0.00 39 1027.4
20260831051550 23 38 4.8 11.3 0.00 0.00 0.00 39 1027.6
20260831051016 23 30 4.8 14.5 0.00 0.00 0.00 38 1027.5
20260831050519 23 63 4.8 14.5 0.00 0.00 0.00 37 1027.7
20260831050036 23 32 3.2 16.1 0.00 0.00 0.00 37 1027.8
20260831045519 23 355 4.8 16.1 0.00 0.00 0.00 37 1027.8
20260831045019 23 79 3.2 17.7 0.00 0.00 0.00 37 1027.8
20260831044537 23 85 6.4 17.7 0.00 0.00 0.00 36 1027.9
20260831044016 23 29 3.2 9.7 0.00 0.00 0.00 37 1027.9
20260831043518 23 27 3.2 12.9 0.00 0.00 0.00 37 1027.9
20260831043034 23 28 3.2 12.9 0.00 0.00 0.00 35 1028.1
20260831042519 23 29 6.4 14.5 0.00 0.00 0.00 35 1028.3